Starlink 5333

operational
NORAD ID: 56507 Int'l Des: 2023-065 Owner: SPXS Country: US Constellation: starlink
LEOCIRCULAR

About Starlink 5333

Description loading...

Live Position

Loading 3D Globe...

Upcoming Passes

Altitude History

Altitude vs Time

uPlot chart will show altitude changes over time

Two-Line Element Set

1 56507U 23065E 26037.20041203 .00000347 00000-0 40803-4 0 9992
2 56507 43.0055 342.7778 0002245 247.0912 112.9694 15.02528557152334
Epoch: Feb 6, 2026 • Age: 24 hours

Current Status

Altitude 570.6 km
Velocity 7.58 km/s
Sub-Earth Point -41.82°S, 61.57°E
Launch Date May 14, 2023
Age 2.7 years
Type internet

Technical Details

Classification Payload
Mass 305.00 kg
Dry Mass 290.00 kg
Total Mass 305.00 kg
Length 0.20 m
Diameter 2.80 m
Span 9.00 m
Shape Box + pan
Manufacturer SPXS
Bus Type Starlink
Phase Status In Orbit
Owner/State SPXS/US

Large Constellations

Loading constellations...